User: anonymous   Login
Location: French Creek State Gamelands
(40.1750°N, 75.7969°W)
Time: 05:31:26
(UTC-04:00)
Language:

ISS - Orbit

View from above orbital plane
View from above orbital plane
View from above satellite
View from above satellite

Ground track
Ground track

The orbit data is extracted from the following two-line orbital elements,

1 25544U 98067A   17119.54718229  .00016717  00000-0  10270-3 0  9015
2 25544  51.6378 280.7424 0005784 109.0002 251.1778 15.53903632 14187
Epoch (UTC): 29 April 2017 13:07:56
Eccentricity: 0.0005784
inclination: 51.6378°
perigee height: 401 km
apogee height: 409 km
right ascension of ascending node: 280.7424°
argument of perigee: 109.0002°
revolutions per day: 15.53903632
mean anomaly at epoch: 251.1778°
orbit number at epoch: 1418

The dashed part of the orbit path shows where the satellite is in the earth's shadow,  

DLR